Fullerton, CA

4:16 PM PDT on April 28, 2017 (GMT -0700)
Fullerton Municipal

Weather History for KFUL - September, 2012

Change the Weather History Date:

Saturday, September 29, 2012

  Actual Average Record
Temperature  
Mean Temperature 81 °F 71 °F  
Max Temperature 96 °F 81 °F 104 °F (1999)
Min Temperature 66 °F 61 °F 56 °F (2006)
Degree Days  
Heating Degree Days 0 0  
Month to date heating degree days 0 0  
Since 1 July heating degree days 16 0  
Cooling Degree Days 16 6  
Month to date cooling degree days 455 249  
Year to date cooling degree days 1722 1112  
Growing Degree Days 30 (Base 50)    
Moisture  
Dew Point 55 °F    
Average Humidity 49    
Maximum Humidity 81    
Minimum Humidity 17    
Precipitation  
Precipitation 0.00 in 0.02 in 0.02 in (1966)
Month to date precipitation T 0.23  
Year to date precipitation 3.54 9.97  
Since 1 July precipitation 0.01  
Snow  
Snow 0.00 in - - ()
Month to date snowfall 0.0  
Year to date snowfall 0.0  
Snow Depth 0.00 in    
Sea Level Pressure  
Sea Level Pressure 29.91 in    
Wind  
Wind Speed 2 mph (WSW)    
Max Wind Speed 10 mph    
Max Gust Speed 15 mph    
Visibility 10 miles    
Events      
T = Trace of Precipitation, MM = Missing Value Source: NWS Daily Summary

Daily Weather History Graph

Daily Weather History Graph

Search for Another Location

Airport or City:

Trip Planner

Search our weather history database for the weather conditions in past years. The results will help you decide how hot, cold, wet, or windy it might be!

Date:

Astronomy

Sep. 29, 2012 Rise Set
Actual Time 6:45 AM PDT 6:38 PM PDT
Civil Twilight 6:20 AM PDT 7:03 PM PDT
Nautical Twilight 5:51 AM PDT 7:31 PM PDT
Astronomical Twilight 5:22 AM PDT 8:01 PM PDT
Moon 6:15 PM PDT (9/29) 6:19 AM PDT (9/29)
Length of Visible Light 12h 42m
Length of Day
11h 52m
Full, 100% of the Moon is Illuminated
Sep 29
Full
Sep 29
Full
Oct 8
Last Quarter
Oct 15
New
Oct 21
First Quarter

Hourly Weather History & Observations

Time (PDT) Temp. Heat Index Dew Point Humidity Pressure Visibility Wind Dir Wind Speed Gust Speed Precip Events Conditions
12:53 AM 70.0 °F - 61.0 °F 73% 29.89 in 9.0 mi Calm Calm - N/A   Clear
1:53 AM 69.1 °F - 60.1 °F 73% 29.89 in 10.0 mi Calm Calm - N/A   Clear
2:53 AM 68.0 °F - 60.1 °F 76% 29.89 in 9.0 mi Calm Calm - N/A   Clear
3:53 AM 66.9 °F - 60.1 °F 79% 29.89 in 9.0 mi Calm Calm - N/A   Clear
4:53 AM 66.9 °F - 54.0 °F 63% 29.90 in 10.0 mi Calm Calm - N/A   Clear
5:53 AM 66.9 °F - 53.1 °F 61% 29.91 in 10.0 mi Calm Calm - N/A   Clear
6:53 AM 66.9 °F - 54.0 °F 63% 29.93 in 10.0 mi Calm Calm - N/A   Clear
7:53 AM 70.0 °F - 55.9 °F 61% 29.94 in 10.0 mi Calm Calm - N/A   Clear
8:53 AM 73.9 °F - 59.0 °F 59% 29.95 in 9.0 mi Calm Calm - N/A   Clear
9:53 AM 79.0 °F - 55.9 °F 45% 29.96 in 10.0 mi Calm Calm - N/A   Clear
10:53 AM 82.0 °F 82.0 °F 57.9 °F 44% 29.95 in 10.0 mi SSE 3.5 mph - N/A   Clear
11:53 AM 87.1 °F 85.3 °F 55.0 °F 33% 29.94 in 10.0 mi Calm Calm - N/A   Clear
12:53 PM 89.1 °F 87.3 °F 55.9 °F 32% 29.92 in 10.0 mi Variable 5.8 mph - N/A   Clear
1:53 PM 93.0 °F 90.6 °F 53.1 °F 26% 29.89 in 10.0 mi Variable 5.8 mph - N/A   Clear
2:53 PM 95.0 °F - 45.0 °F 18% 29.88 in 10.0 mi WNW 8.1 mph - N/A   Clear
3:53 PM 91.0 °F - 48.0 °F 23% 29.87 in 10.0 mi West 8.1 mph - N/A   Clear
4:53 PM 88.0 °F - 46.9 °F 24% 29.87 in 10.0 mi Variable 5.8 mph - N/A   Clear
5:53 PM 84.9 °F - 48.9 °F 29% 29.87 in 10.0 mi West 8.1 mph - N/A   Clear
6:53 PM 81.0 °F 80.4 °F 53.1 °F 38% 29.89 in 10.0 mi WSW 3.5 mph - N/A   Clear
7:53 PM 78.1 °F - 53.1 °F 42% 29.91 in 10.0 mi Calm Calm - N/A   Clear
8:53 PM 77.0 °F - 54.0 °F 45% 29.92 in 10.0 mi Calm Calm - N/A   Clear
9:53 PM 75.0 °F - 55.9 °F 51% 29.93 in 10.0 mi Calm Calm - N/A   Clear
10:53 PM 73.9 °F - 55.9 °F 53% 29.94 in 10.0 mi Calm Calm - N/A   Clear
11:53 PM 73.0 °F - 59.0 °F 61% 29.94 in 10.0 mi Calm Calm - N/A   Clear